This is the latest recevied weather packets stored in our database for station/object N3MFL. If no packets are shown the sender has not sent any weather packets the latest 10 day(s).
| Time | Temp. | Humidity | Pressure | Rain* | Wind** | Luminosity | Snow |
|---|---|---|---|---|---|---|---|
| 1777669562 | 18.33° C | 32% | 1009.6 hPa | 0 mm | - | 306 W/m² | - |
| 1777669259 | 18.33° C | 31% | 1009.7 hPa | 0 mm | - | 319 W/m² | - |
| 1777668955 | 17.78° C | 30% | 1009.7 hPa | 0 mm | - | 335 W/m² | - |
| 1777668653 | 18.33° C | 33% | 1009.7 hPa | 0 mm | - | 351 W/m² | - |
| 1777668349 | 18.33° C | 31% | 1009.6 hPa | 0 mm | - | 364 W/m² | - |
| 1777668045 | 18.33° C | 31% | 1009.5 hPa | 0 mm | - | 379 W/m² | - |
| 1777667742 | 17.78° C | 31% | 1009.7 hPa | 0 mm | - | 393 W/m² | - |
| 1777667440 | 18.33° C | 32% | 1009.7 hPa | 0 mm | - | 408 W/m² | - |
| 1777667137 | 17.78° C | 32% | 1009.5 hPa | 0 mm | - | 421 W/m² | - |
| 1777666833 | 18.33° C | 30% | 1009.6 hPa | 0 mm | - | 441 W/m² | - |
| 1777666531 | 18.33° C | 30% | 1009.4 hPa | 0 mm | - | 461 W/m² | - |
| 1777666227 | 17.78° C | 33% | 1009.7 hPa | 0 mm | - | 480 W/m² | - |
| 1777665924 | 17.78° C | 37% | 1009.6 hPa | 0 mm | - | 490 W/m² | - |
| 1777665621 | 18.33° C | 31% | 1009.6 hPa | 0 mm | - | 493 W/m² | - |
| 1777665318 | 17.78° C | 31% | 1009.6 hPa | 0 mm | - | 513 W/m² | - |
| 1777665014 | 17.22° C | 31% | 1009.5 hPa | 0 mm | - | 138 W/m² | - |
| 1777664710 | 17.78° C | 31% | 1009.9 hPa | 0 mm | - | 234 W/m² | - |
| 1777664406 | 17.78° C | 33% | 1009.9 hPa | 0 mm | - | 545 W/m² | - |
| 1777664104 | 17.78° C | 34% | 1009.9 hPa | 0 mm | - | 550 W/m² | - |
| 1777663801 | 17.22° C | 34% | 1009.9 hPa | 0 mm | - | 559 W/m² | - |
| 1777663498 | 17.78° C | 33% | 1009.9 hPa | 0 mm | - | 569 W/m² | - |
| 1777663195 | 16.67° C | 37% | 1010 hPa | 0 mm | - | 603 W/m² | - |
| 1777662893 | 16.67° C | 35% | 1010 hPa | 0 mm | - | 625 W/m² | - |
| 1777662590 | 16.67° C | 35% | 1010 hPa | 0 mm | - | 585 W/m² | - |
| 1777662286 | 16.67° C | 37% | 1009.9 hPa | 0 mm | - | 375 W/m² | - |
* Rain latest hour (hover to see other rain measurements)
** Current wind speed in m/s (hover to see current wind gust speed)